STARLINK35434

导读

STARLINK-35434是美国于2025年10月29日发射的星链卫星,归属于SpaceX公司的星链星座项目。星链项目旨在构建全球卫星互联网星座,为全球各地提供高速低延迟的宽带互联网服务,该卫星入轨后将参与组网,进一步扩展星链星座的覆盖范围与服务能力。

Basic Information
目录编号:
66246
目录名称:
STARLINK-35434
国际标识:
2025-245N
轨道中心:
EARTH
卫星名称:
STARLINK-35434
卫星全名:
STARLINK35434
卫星状态:
在轨 (已飞行310 天)
发射日期:
2025-10-29 UTC
国别 :
美国 (US)
星等 :
--
Orbit Information
数据来源 国际轨道数据
星历时间: 2026-09-04T03:17:23+0800
10小时前
查看轨道信息
半长轴: 6848.837km
偏心率: 0.0001408
轨道倾角: 53.157°
近地点辐角 93.712°
升交点赤经 175.361°
平近点角 266.404°
近地点: 469.735km
远地点: 471.665km
周期: 94.012分钟
每日圈数: 15.317135
Detailed Information
使用方式:
暂无
2D Orbit Map
3D Orbit Map
Orbit Altitude Analysis Chart
Orbit Inclination Analysis Chart
Orbit Comprehensive Analysis Chart
View Comprehensive Chart
Conjunction Data List
Event ID Objects TCA Miss Dist (km) Collision Risk Probability Collision Risk Index (CRI) Action
CDM_260903-120106-436806-624621
2026-09-03T
12:01:35+0000
0.798 km
远距离
5.009144E-5 中风险 0.69
CDM_260904-030503-537806-624621
CZ-4 DEB (35378)
2026-09-04T
03:05:34+0000
2.195 km
极远距离
2.282192E-6 低风险 0.42
CDM_260903-194206-525706-624622
2026-09-03T
19:42:33+0000
2.628 km
极远距离
1.467248E-6 低风险 0.38
CDM_260830-031406-624606-831321
2026-08-30T
03:14:23+0000
2.916 km
极远距离
1.382801E-6 低风险 0.38
CDM_260904-233906-624606-829421
2026-09-04T
23:39:24+0000
2.915 km
极远距离
1.371529E-6 低风险 0.38